Buffalo, NY

10:45 PM EDT on May 27, 2017 (GMT -0400)
Buffalo Niagara International

Weather History for KBUF - December, 2010

Change the Weather History Date:

Tuesday, December 28, 2010

  Actual Average Record
Temperature  
Mean Temperature 27 °F 27 °F  
Max Temperature 29 °F 33 °F 67 °F (1982)
Min Temperature 25 °F 21 °F -3 °F (1960)
Degree Days  
Heating Degree Days 38 38  
Month to date heating degree days 1103 967  
Since 1 July heating degree days 2377 2300  
Cooling Degree Days 0 0  
Month to date cooling degree days 0 0  
Year to date cooling degree days 744 544  
Moisture  
Dew Point 21 °F    
Average Humidity 77    
Maximum Humidity 84    
Minimum Humidity 69    
Precipitation  
Precipitation T in 0.13 in 1.81 in (1922)
Month to date precipitation 2.66 3.52  
Year to date precipitation 36.66 40.11  
Snow  
Snow T in 1.10 in 26.20 in (2001)
Month to date snowfall 32.0 24.3  
Since 1 July snowfall 33.6 33.1  
Snow Depth 5.00 in    
Sea Level Pressure  
Sea Level Pressure 29.95 in    
Wind  
Wind Speed 18 mph (West)    
Max Wind Speed 31 mph    
Max Gust Speed 41 mph    
Visibility 9 miles    
Events Snow    
T = Trace of Precipitation, MM = Missing Value Source: NWS Daily Summary

Daily Weather History Graph

Daily Weather History Graph

Search for Another Location

Airport or City:

Trip Planner

Search our weather history database for the weather conditions in past years. The results will help you decide how hot, cold, wet, or windy it might be!

Date:

Astronomy

Dec. 28, 2010 Rise Set
Actual Time 7:45 AM EST 4:47 PM EST
Civil Twilight 7:13 AM EST 5:20 PM EST
Nautical Twilight 6:37 AM EST 5:55 PM EST
Astronomical Twilight 6:02 AM EST 6:30 PM EST
Moon 12:36 AM EST 11:50 AM EST
Length of Visible Light 10h 06m
Length of Day
9h 02m
Last Quarter, 44% of the Moon is Illuminated
Dec 28
Last Quarter
Jan 4
New
Jan 12
First Quarter
Jan 19
Full
Jan 26
Last Quarter

Hourly Weather History & Observations

Time (EST) Temp. Windchill Dew Point Humidity Pressure Visibility Wind Dir Wind Speed Gust Speed Precip Events Conditions
12:54 AM 27.0 °F 15.2 °F 23.0 °F 85% 29.98 in 10.0 mi WSW 15.0 mph - N/A   Overcast
1:05 AM 26.6 °F 15.7 °F 21.2 °F 80% 29.94 in 10.0 mi West 12.7 mph - N/A   Overcast
1:34 AM 26.6 °F 14.7 °F 21.2 °F 80% 29.94 in 10.0 mi West 15.0 mph - N/A   Overcast
1:54 AM 26.1 °F 14.5 °F 19.9 °F 78% 29.98 in 10.0 mi West 13.8 mph - N/A   Overcast
2:54 AM 27.0 °F 14.7 °F 21.0 °F 78% 29.96 in 10.0 mi WSW 16.1 mph - N/A   Mostly Cloudy
3:54 AM 27.0 °F 15.2 °F 19.9 °F 75% 29.95 in 10.0 mi WSW 15.0 mph - N/A   Mostly Cloudy
4:54 AM 26.1 °F 11.6 °F 19.0 °F 75% 29.94 in 10.0 mi West 21.9 mph 27.6 mph N/A   Mostly Cloudy
5:51 AM 24.8 °F 10.7 °F 19.4 °F 80% 29.92 in 10.0 mi West 19.6 mph 32.2 mph 0.00 in Snow Light Snow
5:54 AM 25.0 °F 11.3 °F 19.0 °F 78% 29.95 in 10.0 mi WSW 18.4 mph 32.2 mph 0.00 in Snow Light Snow
6:35 AM 24.8 °F 10.3 °F 19.4 °F 80% 29.92 in 10.0 mi West 20.7 mph 29.9 mph 0.00 in Snow Light Snow
6:54 AM 25.0 °F 10.2 °F 19.0 °F 78% 29.96 in 10.0 mi WSW 21.9 mph 31.1 mph 0.00 in Snow Light Snow
7:54 AM 25.0 °F 11.3 °F 19.0 °F 78% 29.96 in 10.0 mi West 18.4 mph 28.8 mph 0.00 in   Scattered Clouds
8:12 AM 26.6 °F 15.7 °F 19.4 °F 74% 29.93 in 10.0 mi West 12.7 mph 25.3 mph N/A   Mostly Cloudy
8:54 AM 25.0 °F 10.9 °F 18.0 °F 75% 29.98 in 10.0 mi West 19.6 mph 28.8 mph N/A   Mostly Cloudy
9:54 AM 25.0 °F 10.9 °F 18.0 °F 75% 29.99 in 10.0 mi West 19.6 mph 32.2 mph N/A   Mostly Cloudy
10:35 AM 26.6 °F 13.8 °F 19.4 °F 74% 29.95 in 10.0 mi West 17.3 mph 29.9 mph N/A   Mostly Cloudy
10:54 AM 27.0 °F 13.9 °F 19.9 °F 75% 29.98 in 10.0 mi West 18.4 mph 24.2 mph N/A   Overcast
11:04 AM 26.6 °F 13.1 °F 19.4 °F 74% 29.95 in 10.0 mi West 19.6 mph 28.8 mph N/A   Overcast
11:54 AM 28.9 °F 14.3 °F 21.9 °F 75% 29.95 in 10.0 mi WSW 26.5 mph 36.8 mph 0.00 in   Overcast
12:54 PM 28.0 °F 13.0 °F 23.0 °F 81% 29.93 in 6.0 mi WSW 26.5 mph 38.0 mph N/A Snow Blowing Snow
1:24 PM 28.4 °F 14.4 °F 23.0 °F 80% 29.90 in 5.0 mi WSW 23.0 mph 35.7 mph 0.00 in Snow Light Snow
1:54 PM 27.0 °F 12.8 °F 23.0 °F 85% 29.93 in 5.0 mi WSW 21.9 mph 33.4 mph 0.00 in Snow Light Snow
2:19 PM 28.4 °F 15.4 °F 24.8 °F 86% 29.90 in 6.0 mi WSW 19.6 mph 32.2 mph 0.00 in Snow Light Snow
2:54 PM 28.9 °F 13.7 °F 23.0 °F 78% 29.93 in 7.0 mi West 28.8 mph 36.8 mph 0.00 in Snow Light Snow
3:30 PM 28.4 °F 13.8 °F 24.8 °F 86% 29.91 in 4.0 mi WSW 25.3 mph 34.5 mph 0.00 in Snow Light Snow
3:54 PM 26.1 °F 12.7 °F 21.9 °F 84% 29.96 in 5.0 mi West 18.4 mph 32.2 mph 0.00 in Snow Light Snow
3:58 PM 26.6 °F 13.4 °F 21.2 °F 80% 29.93 in 5.0 mi West 18.4 mph 28.8 mph 0.00 in Snow Light Snow
4:48 PM 24.8 °F 11.1 °F 19.4 °F 80% 29.94 in 7.0 mi West 18.4 mph 23.0 mph 0.00 in   Overcast
4:54 PM 24.8 °F 12.4 °F 19.4 °F 80% 29.94 in 8.0 mi West 15.0 mph 23.0 mph N/A   Overcast
5:54 PM 26.1 °F 12.0 °F 19.0 °F 75% 29.98 in 10.0 mi West 20.7 mph 26.5 mph 0.00 in Snow Light Snow
6:54 PM 27.0 °F 14.7 °F 19.9 °F 75% 29.99 in 9.0 mi West 16.1 mph 25.3 mph 0.00 in Snow Light Snow
7:54 PM 27.0 °F 14.7 °F 19.9 °F 75% 30.00 in 10.0 mi West 16.1 mph 26.5 mph 0.00 in   Overcast
8:54 PM 28.0 °F 17.0 °F 19.9 °F 72% 30.00 in 10.0 mi West 13.8 mph - N/A   Overcast
9:54 PM 26.6 °F 15.7 °F 19.4 °F 74% 29.97 in 10.0 mi West 12.7 mph 19.6 mph N/A   Overcast
10:54 PM 27.0 °F 16.1 °F 21.0 °F 78% 30.01 in 10.0 mi West 12.7 mph - N/A   Overcast
11:54 PM 27.0 °F 17.3 °F 21.0 °F 78% 30.02 in 10.0 mi West 10.4 mph - N/A   Overcast